Flag for U.S.A. Weather past 2 weeks in Charlotte, North Carolina, U.S.A.

Now
60 °F

Passing clouds.


Feels Like: 60 °F
Forecast: 60 / 84 °F
Wind: No wind

Location: Charlotte / Douglas International Airport

Current Time: May 25, 2015 at 7:43:54 AM

Latest Report: May 25, 2015 at 6:52 AM


Visibility: 10 mi

Pressure: 30.32 "Hg

Humidity: 80%

Dew point: 54 °F

Location of CharlotteLocation

Historic Weather in Charlotte — Graph

°F

Charlotte temperature yesterday

Maximum temperature yesterday: 81 °F (at 2:52 PM)
Minimum temperature yesterday: 57 °F (at 6:52 AM)
Average temperature yesterday: 71 °F

Past Weeks' High & Low Weather Summary

 TemperatureHumidityPressure
High90 °F (May 11, 4:52 PM)97% (May 11, 6:52 AM)30.42 "Hg (May 11, 6:52 AM)
Low50 °F (May 23, 5:52 AM)21% (May 13, 4:52 PM)29.79 "Hg (May 21, 6:52 PM)
Average73 °F58%30.14 "Hg
* Reported May 10 5:52 AM — May 25 5:52 AM, Charlotte, Weather by CustomWeather, © 2015

Note: Actual official high and low records may vary slightly from our data, if they occured in-between our weather recording intervals... More about our weather records

Advertising

Charlotte weather history for previous 24 hours

 ConditionsComfort  
Time TempWeatherWind HumidityBarometerVisibility
5:52 AM
Mon, May 25
60 °FClear.3 mph80%30.31 "Hg10 mi
4:52 AM62 °FClear.No wind75%30.30 "Hg10 mi
3:52 AM63 °FClear.5 mph73%30.29 "Hg10 mi
2:52 AM64 °FClear.6 mph70%30.29 "Hg10 mi
1:52 AM64 °FClear.7 mph70%30.30 "Hg10 mi
12:52 AM66 °FClear.9 mph63%30.31 "Hg10 mi
11:52 PM
Sun, May 24
69 °FClear.12 mph57%30.31 "Hg10 mi
10:52 PM71 °FPassing clouds.12 mph53%30.31 "Hg10 mi
9:52 PM72 °FPassing clouds.8 mph49%30.29 "Hg10 mi
8:52 PM73 °FScattered clouds.7 mph44%30.27 "Hg10 mi
7:52 PM77 °FPassing clouds.8 mph39%30.27 "Hg10 mi
6:52 PM80 °FPassing clouds.12 mph34%30.27 "Hg10 mi
5:52 PM80 °FScattered clouds.7 mph32%30.27 "Hg10 mi
4:52 PM80 °FScattered clouds.10 mph32%30.29 "Hg10 mi
3:52 PM81 °FScattered clouds.12 mph32%30.31 "Hg10 mi
2:52 PM81 °FScattered clouds.12 mph33%30.33 "Hg10 mi
1:52 PM80 °FBroken clouds.12 mph35%30.35 "Hg10 mi
12:52 PM78 °FBroken clouds.6 mph37%30.37 "Hg10 mi
11:52 AM77 °FPartly sunny.7 mph37%30.38 "Hg10 mi
10:52 AM75 °FPartly sunny.6 mph42%30.40 "Hg10 mi
9:52 AM72 °FPartly sunny.6 mph52%30.41 "Hg10 mi
8:52 AM67 °FPartly sunny.No wind66%30.41 "Hg10 mi
7:52 AM63 °FScattered clouds.No wind73%30.41 "Hg10 mi
Weather by CustomWeather, © 2015

See weather overviewHow to use our weather pages